Meath Environmental Platform

Observations for Trim Market St

Time AQI Temp °C Hum % Pres Pa CO μg/m³ H₂S μg/m³ NO μg/m³ NO₂ μg/m³ O₃ μg/m³ SO₂ μg/m³ PM1 μg/m³ PM2.5 μg/m³ PM10 μg/m³
Wednesday 15 July 2026
10:20 1 28.4 49 56,852 0.13 0 0 3.02 22.11 0 10.69 15.39 24.8
10:18 1 28 50 56,445 0.12 0 0 2.45 20.88 0 10.69 14.82 20.22
10:16 1 27.6 51 56,028 0.08 0 0 2.96 24.05 0 10.69 15.26 21.62
10:11 1 26.7 52 56,482 0 0 0 2.36 29.81 0 9.98 15.17 21.48
10:10 1 26.6 52 56,618 0 0 0 1.97 29 0 10.69 14.64 22.19
10:09 1 26.5 52 56,741 0 0 0 1.87 28.33 0 11.4 15.13 22.17
10:08 1 26.3 52 56,870 0 0 0 1.9 26.75 0 11.4 14.61 22.14
10:07 1 26.3 53 56,989 0 0 0 4.19 31.7 0 9.26 12.05 17.75
10:06 1 26.2 53 57,105 0 0 0 3.01 31.44 0 9.26 14.08 21.39
10:05 1 26.1 53 57,172 0 0 0 2.5 29.36 0 12.11 15.08 22.81
10:04 1 26.1 53 57,254 0 0 0 1.88 29.6 0 9.98 14.55 20.61
10:03 1 26 54 57,374 0 0 0 3.97 32.3 0 10.69 16.57 24.92
10:02 1 25.9 54 57,497 0 0 0 2.57 35.39 0 11.4 16.04 24.9
10:01 1 25.7 54 57,663 0 0 0 4.1 32.99 0 10.69 14.5 21.25
10:00 1 25.6 54 57,744 0 0 0 1.92 34.27 0 12.11 16.53 24.85
09:59 1 25.5 54 57,803 0 0 0 3.75 38.48 0 9.26 13.48 18.36
09:58 1 25.3 54 57,807 0 0 0 2.6 38.31 0 12.83 17.04 25.57
09:56 1 25.2 54 57,810 0 0 0 4.55 31.82 0 9.98 12.98 19.1
09:53 1 25.2 54 57,804 0 0 0 4.86 27.36 0 12.11 15.53 24.17
09:52 1 25.2 54 57,802 0 0 0 1.96 32.72 0 12.83 17.57 26.34